FW9787 Weather Reports


time (UTC)temp
F
wind
direction
speed
knots
gust
knots
rain 1hr
in
rain 24hr
in
rain mn
in
humidity
%
barometer
mb
20260503224503 69 258 4.3 12.2 0.00 0.00 0.00 3 1000.6
20260503223100 70 246 1.7 8.7 0.00 0.00 0.00 6 1000.6
20260503221555 70 290 3.5 12.2 0.00 0.00 0.00 4 1000.6
20260503220050 70 271 1.7 13.0 0.00 0.00 0.00 6 1000.7
20260503214554 71 315 2.6 12.2 0.00 0.00 0.00 4 1000.7
20260503213104 71 242 1.7 7.8 0.00 0.00 0.00 3 1000.7
20260503211556 70 342 0.9 12.2 0.00 0.00 0.00 6 1000.8
20260503210035 70 248 1.7 11.3 0.00 0.00 0.00 6 1001.1
20260503204544 70 252 5.2 12.2 0.00 0.00 0.00 4 1001.2
20260503203025 71 290 2.6 14.8 0.00 0.00 0.00 2 1001.4
20260503201524 71 286 1.7 8.7 0.00 0.00 0.00 3 1001.6
20260503200016 71 240 3.5 15.6 0.00 0.00 0.00 2 1001.9
20260503194518 71 309 0.9 11.3 0.00 0.00 0.00 1 1001.8
20260503193008 71 240 5.2 12.2 0.00 0.00 0.00 1 1002.1
20260503191503 71 279 3.5 8.7 0.00 0.00 0.00 1 1002.2
20260503190059 69 336 4.3 9.6 0.00 0.00 0.00 1 1002.2
20260503184618 69 311 4.3 19.1 0.00 0.00 0.00 1 1002.5
20260503183052 69 297 4.3 12.2 0.00 0.00 0.00 2 1002.6
20260503181547 70 319 3.5 7.0 0.00 0.00 0.00 3 1002.6
20260503180042 69 337 3.5 8.7 0.00 0.00 0.00 5 1002.7
20260503174550 68 292 5.2 11.3 0.00 0.00 0.00 3 1002.8
20260503173033 68 242 4.3 16.5 0.00 0.00 0.00 5 1002.8
20260503171533 67 248 5.2 14.8 0.00 0.00 0.00 17 1002.9
20260503081611 42 360 0.0 0.0 0.00 0.00 0.00 100 1004.0
20260503071505 42 360 0.9 1.7 0.00 0.00 0.00 100 1004.7
20260503070115 41 360 0.0 0.0 0.00 0.00 0.00 100 1004.9
20260503060103 39 360 0.0 0.0 0.00 0.00 0.00 100 1005.8
20260503054557 39 360 0.0 0.0 0.00 0.00 0.00 100 1005.9
20260503053048 39 360 0.0 0.0 0.00 0.00 0.00 100 1006.1
20260503051550 39 360 0.0 0.0 0.00 0.00 0.00 100 1006.1
20260503050044 40 360 0.0 0.9 0.00 0.00 0.00 100 1006.3
20260503044544 40 360 0.0 0.0 0.00 0.00 0.00 100 1006.3
20260503043046 42 360 0.0 2.6 0.00 0.00 0.00 100 1006.4
20260503041542 44 360 0.9 2.6 0.00 0.00 0.00 77 1007.0
20260503040041 44 355 0.0 0.0 0.00 0.00 0.00 70 1006.6
20260503034545 45 355 0.0 2.6 0.00 0.00 0.00 69 1006.6
20260503033052 46 340 0.0 2.6 0.00 0.00 0.00 68 1006.8
20260503031540 46 340 0.0 2.6 0.00 0.00 0.00 68 1007.0
20260503030040 47 133 0.9 2.6 0.00 0.00 0.00 67 1007.0
20260503024545 47 134 0.0 1.7 0.00 0.00 0.00 66 1007.1
20260503023044 48 134 0.0 0.0 0.00 0.00 0.00 66 1007.3
20260503021538 48 134 0.0 1.7 0.00 0.00 0.00 65 1007.0
20260503020041 48 134 0.0 2.6 0.00 0.00 0.00 63 1006.9
20260503014536 49 134 0.0 0.0 0.00 0.00 0.00 61 1006.9
20260503013038 49 134 0.0 1.7 0.00 0.00 0.00 59 1006.7
20260503011535 50 134 0.0 2.6 0.00 0.00 0.00 56 1006.8
20260503010035 50 134 0.0 1.7 0.00 0.00 0.00 54 1006.8
20260503004538 51 134 0.0 1.7 0.00 0.00 0.00 50 1006.8
20260503003038 51 134 0.0 3.5 0.00 0.00 0.00 48 1006.9
20260503001532 52 134 0.0 0.9 0.00 0.00 0.00 48 1006.9
20260503000030 53 134 0.0 1.7 0.00 0.00 0.00 42 1007.2
20260502234534 54 134 0.0 1.7 0.00 0.00 0.00 39 1007.3
20260502233029 57 134 0.0 2.6 0.00 0.00 0.00 38 1007.5
20260502231528 59 134 0.9 2.6 0.00 0.00 0.00 34 1007.6
20260502230026 60 134 0.0 3.5 0.00 0.00 0.00 29 1007.7